Location: Vancouver
(49.2500°N, 123.1330°W)
Time: 07:45:52
(UTC-07:00)

YAOGAN 6 - Visible Passes

Search period start: 28 August 2015 00:00
Search period end: 07 September 2015 00:00
Orbit: 473 x 517 km, 97.2° (Epoch: 28 August)

Date Brightness Start Highest point End Pass type
(mag) Time Alt. Az. Time Alt. Az. Time Alt. Az.
28 Aug 3.2 22:04:58 37° E 22:05:12 37° ENE 22:08:35 10° N visible
28 Aug 5.0 23:39:33 18° W 23:39:33 18° W 23:41:37 10° NW visible
29 Aug 4.0 21:43:44 22° ENE 21:44:10 23° ENE 21:47:05 10° NNE visible
29 Aug 4.3 23:18:19 29° WNW 23:18:19 29° WNW 23:20:59 10° NNW visible
30 Aug 4.6 21:22:29 14° ENE 21:23:10 15° ENE 21:25:16 10° NNE visible
30 Aug 3.5 22:57:04 47° WNW 22:57:04 47° WNW 23:00:04 10° NNW visible
31 Aug 2.8 22:35:49 66° N 22:35:49 66° N 22:38:57 10° NNW visible
01 Sep 3.1 22:14:34 46° NE 22:14:34 46° NE 22:17:41 10° N visible
01 Sep 5.4 23:49:09 13° WNW 23:49:09 13° WNW 23:50:13 10° NW visible
02 Sep 3.7 21:53:19 28° ENE 21:53:19 28° ENE 21:56:16 10° N visible
02 Sep 4.9 23:27:54 21° WNW 23:27:54 21° WNW 23:29:48 10° NW visible
03 Sep 4.3 21:32:03 18° ENE 21:32:06 18° ENE 21:34:35 10° NNE visible
03 Sep 4.3 23:06:38 31° NW 23:06:38 31° NW 23:08:58 10° NNW visible
04 Sep 4.8 21:10:47 11° ENE 21:11:06 11° ENE 21:12:16 10° NE visible
04 Sep 3.7 22:45:22 43° NNW 22:45:22 43° NNW 22:47:54 10° NNW visible
05 Sep 3.4 22:24:06 43° NNE 22:24:06 43° NNE 22:26:41 10° N visible
06 Sep 3.8 22:02:48 31° NE 22:02:48 31° NE 22:05:19 10° N visible
06 Sep 5.4 23:37:23 15° WNW 23:37:23 15° WNW 23:38:26 10° NW visible
